Terminal Aerodrome Forecast
Issued by NWS

Home | Current Version | Previous Version | Text Only | Print | Product List | Glossary On
Versions: 1 2 3 4 5 6 7 8 9 10 11 12 13 14 15 16 17
000
FTUS43 KPAH 232125 AAA
TAFCGI
TAF AMD
KCGI 232125Z 2321/2418 VRB04KT P6SM VCSH SCT019 BKN045
      TEMPO 2321/2323 5SM -SHRA BR BKN019
     FM240000 01005KT P6SM VCSH OVC050
      TEMPO 2400/2404 4SM -SHRA OVC025
     FM240400 35005KT 6SM BR VCSH BKN008
     FM241500 35012KT P6SM SCT007 OVC015=

USA.gov is the U.S. government's official web portal to all federal, state and local government web resources and services.